Weather in Peninga

Russia / Republic of Karelia     63°33′15″N   32°02′33″E
temp.,
°C
wind,
m/s
gust,
m/s
humid.,
%
clouds,
%
prec.,
mm/h
press.,
hPa
HPBL,
m
8 august, mon
mon800:00+9sw298648 0.0 1016181
03:00+9sw27936 0.1 1017160
06:00+9wsw289068 0.0 1018239
09:00+14wsw46685 0.0 1019784
12:00+16wsw455142 0.2 10201736
15:00+15w3655100 0.2 1021537
18:00+15wnw2458100 0.0 1022660
21:00+13w1167100 0.0 102310
9 august, tue
tue900:00+12w1171100 0.0 102410
03:00+11w1172100 0.0 102511
06:00+12w1173100 0.0 102511
09:00+14nw126482 0.0 1026319
12:00+19w124152 0.0 10261972
15:00+18wnw1248100 0.0 1025902
18:00+18ese1152100 0.0 1025105
21:00+15sw116296 0.0 102514
10 august, wed
wed1000:00+11sw116930 0.0 102510
03:00+10sw1173100 0.0 102511
06:00+11sw1172100 0.0 102532
09:00+16sw355788 0.0 1024329
12:00+19wsw3646100 0.0 10231345
15:00+20wsw5641100 0.0 10221756
18:00+19wsw484981 0.0 10211395
21:00+14ssw3969100 0.0 1020199
11 august, thu
thu1100:00+14sw41379100 0.0 1020386
03:00+13sw51383100 0.0 1019471
06:00+14sw51285100 0.0 1018496
09:00+16sw51276100 0.0 1017624
12:00+18sw61370100 0.0 1015804
15:00+20wsw71269100 0.1 10141288
18:00+16sw51294100 1.9 1013664
21:00+16w5118895 2.0 1014832
12 august, fri
fri1200:00+12w31388100 0.0 1015438
03:00+11w413885 0.0 1016398
06:00+11w412885 0.0 1017508
09:00+15w6116611 0.0 10171091
12:00+19w610465 0.0 10171522
15:00+20w710445 0.0 10171685
18:00+18wsw59575 0.0 10181387
21:00+13w36795 0.0 1019174